Tracking 33190 objects as of 9-Feb-2026
HD Live streaming from Space Station
objects crossing your sky now

COSMOS 2195

Track COSMOS 2195 now!
10-day predictions
COSMOS 2195 is classified as:


NORAD ID: 22006
Int'l Code: 1992-036A
Perigee: 961.9 km
Apogee: 1,014.4 km
Inclination: 82.9 °
Period: 104.7 minutes
Semi major axis: 7359 km
RCS: 2.4537 m2 (large)
Launch date: July 1, 1992
Source: Commonwealth of Independent States (former USSR) (CIS)
Launch site: PLESETSK MISSILE AND SPACE COMPLEX (PKMTR)
Your satellite tracking list
Your tracking list is empty




NASA's NSSDC Master Catalog

Two Line Element Set (TLE):
1 22006U 92036A   26039.83813890  .00000088  00000-0  76516-4 0  9995
2 22006  82.9377 153.3780 0035633 272.2939 202.0524 13.75180034686499
Source of the keplerian elements: AFSPC